Regional Weather Roundup
Issued by NWS

Home | Current Version | Previous Version | Text Only | Print | Product List | Glossary On
Versions: 1 2 3 4 5 6 7 8 9 10 11 12 13 14 15 16 17 18 19 20 21 22 23 24 25 26 27 28 29 30 31 32 33 34 35 36 37 38 39 40 41 42 43 44 45 46 47 48 49 50
000
ASUS42 KKEY 310810
RWRKEY

FLORIDA REGIONAL WEATHER ROUNDUP FOR THE FLORIDA KEYS
NATIONAL WEATHER SERVICE KEY WEST FLORIDA
300 AM EST SAT JAN 31 2015

...SOUTH FLORIDA AND THE KEYS...

CITY           SKY/WX    TMP DP  RH WIND       PRES   REMARKS
FORT MYERS     PTCLDY    54  51  90 NE9       30.19S
SW REGIONAL AP PTCLDY    55  51  86 NE7       30.19F FOG
NAPLES         PTCLDY    59  53  80 NE9       30.17F
MIAMI          MOCLDY    63  55  75 N6        30.15F
WEST KENDALL   CLEAR     59  56  89 N6        30.15F
HOMESTEAD      PTCLDY    59  56  89 NW8       30.14F
MARATHON       CLEAR     64  61  90 N12       30.14F
BOCA CHICA NAS CLEAR     66  60  81 N13       30.15F
KEY WEST INTL  CLEAR     65  61  87 N10       30.15F

...INTERNATIONAL WEATHER...

CITY           SKY/WX    TMP DP  RH WIND       PRES   REMARKS
NASSAU BAHAMAS MOCLDY    70  57  64 N6        30.11
CANCUN MEXICO  PTCLDY    66  59  77 NE3       30.12F
COZUMEL MEXICO PTCLDY    66  59  77 NE5       30.11F

ADJACENT COASTAL WATERS...

STATION/POSITION TIME  SKY/WX   TEMP    WIND        PRES    WAVE
                                AIR SEA DIR/SP/G            HT/PER
                 (UTC)          (F)     (DEG/KT/KT) (MB)    (FT/S)
PULASKI SHOAL LI NOT AVBL
SAND KEY         NOT AVBL
SOMBRERO KEY     NOT AVBL
LONG KEY         NOT AVBL
MOLASSES REEF    NOT AVBL
FOWEY ROCKS      NOT AVBL
Buoy 42080       NOT AVBL

$$



USA.gov is the U.S. government's official web portal to all federal, state and local government web resources and services.